Hourly Weather Lugansk

Today, 6 May, Thursday

Time Temperature Precipitation Wind Pressure Humidity
00:00 +14°C° 0 mm 4 mps 747 mmHg 48%
01:00 +13°C° 0 mm 4 mps 746 mmHg 51%
02:00 +13°C° 0 mm 4 mps 746 mmHg 53%
03:00 +12°C° 0 mm 4 mps 746 mmHg 55%
04:00 +12°C° 0 mm 4 mps 745 mmHg 57%
05:00 +12°C° 0 mm 4 mps 745 mmHg 59%
06:00 +14°C° 0 mm 5 mps 744 mmHg 52%
07:00 +17°C° 0 mm 5 mps 744 mmHg 46%
08:00 +20°C° 0 mm 6 mps 743 mmHg 39%
09:00 +22°C° 0 mm 6 mps 743 mmHg 34%
10:00 +24°C° 0 mm 7 mps 742 mmHg 30%
11:00 +27°C° 0 mm 7 mps 742 mmHg 25%
12:00 +29°C° 0 mm 7 mps 741 mmHg 22%
13:00 +30°C° 0 mm 7 mps 741 mmHg 20%
14:00 +33°C° 0 mm 6 mps 740 mmHg 17%
15:00 +32°C° 0 mm 6 mps 740 mmHg 19%
16:00 +30°C° 0 mm 5 mps 740 mmHg 21%
17:00 +29°C° 0 mm 4 mps 740 mmHg 24%
18:00 +27°C° 0 mm 4 mps 740 mmHg 30%
19:00 +25°C° 0 mm 4 mps 741 mmHg 36%
20:00 +21°C° 0 mm 4 mps 741 mmHg 42%
21:00 +21°C° 0 mm 4 mps 742 mmHg 43%
22:00 +20°C° 0 mm 4 mps 742 mmHg 44%
23:00 +19°C° 0 mm 3 mps 742 mmHg 44%

Tomorrow, 7 May, Friday

Time Temperature Precipitation Wind Pressure Humidity
00:00 +18°C° 0 mm 3 mps 743 mmHg 46%
01:00 +18°C° 0 mm 3 mps 743 mmHg 49%
02:00 +17°C° 0 mm 2 mps 744 mmHg 51%
03:00 +16°C° 0 mm 3 mps 744 mmHg 57%
04:00 +15°C° 0 mm 4 mps 745 mmHg 63%
05:00 +14°C° 0 mm 5 mps 746 mmHg 70%
06:00 +14°C° 0 mm 5 mps 747 mmHg 66%
07:00 +15°C° 0 mm 5 mps 747 mmHg 62%
08:00 +16°C° 0 mm 5 mps 748 mmHg 58%
09:00 +17°C° 0 mm 5 mps 748 mmHg 53%
10:00 +19°C° 0 mm 5 mps 748 mmHg 47%
11:00 +20°C° 0 mm 5 mps 749 mmHg 41%
12:00 +16°C° 0.1 mm 6 mps 749 mmHg 49%
13:00 +14°C° 0.1 mm 7 mps 750 mmHg 56%
14:00 +11°C° 0.1 mm 9 mps 751 mmHg 63%
15:00 +11°C° 0 mm 8 mps 751 mmHg 60%
16:00 +11°C° 0 mm 6 mps 752 mmHg 58%
17:00 +13°C° 0 mm 5 mps 752 mmHg 55%
18:00 +12°C° 0 mm 4 mps 753 mmHg 54%
19:00 +12°C° 0 mm 3 mps 753 mmHg 53%
20:00 +12°C° 0 mm 3 mps 753 mmHg 52%
21:00 +11°C° 0 mm 3 mps 754 mmHg 54%
22:00 +11°C° 0 mm 3 mps 755 mmHg 56%
23:00 +10°C° 0 mm 4 mps 755 mmHg 59%

Day after tomorrow, 8 May, Saturday

Time Temperature Precipitation Wind Pressure Humidity
00:00 +9°C° 0 mm 3 mps 756 mmHg 61%
01:00 +9°C° 0 mm 3 mps 757 mmHg 64%
02:00 +8°C° 0 mm 3 mps 757 mmHg 66%
03:00 +8°C° 0 mm 2 mps 758 mmHg 67%
04:00 +7°C° 0 mm 2 mps 759 mmHg 69%
05:00 +7°C° 0 mm 2 mps 759 mmHg 70%
06:00 +9°C° 0 mm 2 mps 760 mmHg 61%
07:00 +10°C° 0 mm 3 mps 760 mmHg 53%
08:00 +12°C° 0 mm 3 mps 760 mmHg 44%
09:00 +13°C° 0 mm 3 mps 760 mmHg 40%
10:00 +14°C° 0 mm 3 mps 760 mmHg 36%
11:00 +14°C° 0 mm 3 mps 760 mmHg 33%
12:00 +16°C° 0 mm 3 mps 760 mmHg 31%
13:00 +17°C° 0 mm 3 mps 760 mmHg 29%
14:00 +18°C° 0 mm 2 mps 759 mmHg 27%
15:00 +18°C° 0 mm 2 mps 759 mmHg 26%
16:00 +18°C° 0 mm 3 mps 759 mmHg 26%
17:00 +18°C° 0 mm 3 mps 759 mmHg 26%
18:00 +17°C° 0 mm 3 mps 759 mmHg 29%
19:00 +14°C° 0 mm 3 mps 758 mmHg 32%
20:00 +13°C° 0 mm 3 mps 758 mmHg 35%
21:00 +12°C° 0 mm 3 mps 758 mmHg 37%
22:00 +12°C° 0 mm 3 mps 758 mmHg 39%
23:00 +11°C° 0 mm 3 mps 758 mmHg 40%

9 May, Sunday

Time Temperature Precipitation Wind Pressure Humidity
00:00 +10°C° 0 mm 2 mps 758 mmHg 42%
01:00 +10°C° 0 mm 2 mps 758 mmHg 44%
02:00 +9°C° 0 mm 2 mps 757 mmHg 46%
03:00 +9°C° 0 mm 2 mps 757 mmHg 47%
04:00 +9°C° 0 mm 2 mps 757 mmHg 48%
05:00 +9°C° 0 mm 2 mps 757 mmHg 49%
06:00 +12°C° 0 mm 2 mps 757 mmHg 45%
07:00 +13°C° 0 mm 2 mps 757 mmHg 40%
08:00 +15°C° 0 mm 2 mps 757 mmHg 36%
09:00 +16°C° 0 mm 2 mps 757 mmHg 32%
10:00 +17°C° 0 mm 2 mps 756 mmHg 29%
11:00 +19°C° 0 mm 2 mps 756 mmHg 26%
12:00 +19°C° 0 mm 2 mps 755 mmHg 24%
13:00 +20°C° 0 mm 2 mps 755 mmHg 22%
14:00 +21°C° 0 mm 2 mps 754 mmHg 21%
15:00 +21°C° 0 mm 2 mps 754 mmHg 21%
16:00 +21°C° 0 mm 2 mps 753 mmHg 21%
17:00 +23°C° 0 mm 2 mps 753 mmHg 21%

10 May, Monday

Time Temperature Precipitation Wind Pressure Humidity

11 May, Tuesday

Time Temperature Precipitation Wind Pressure Humidity
Show more

We Need Your Consent

Meteoprog and our Service Providers may store and access personal data such as cookies, device identifiers or other similar technologies on your device and process such data to personalise content and ads, as well as provide social media features and to analyse the traffic.

  • Store and/or access information on your device

    Cookies, device identifiers or other information can be stored or accessed on your device for the purposes indicated above.

  • Personalised ads and content, ad and content measurement, audience insights, and products development

    Ads and content can be personalised based on a profile. More data can be added to better personalise ads and content. Ad and content performance can be measured. Insights about the audience who saw the ads and content can be derived. Such data can be used to develop or improve user’s experience, systems and software.

By clicking ‘I Agree’ you will allow the use of indicated cookies, device identifiers, web beacons or other similar technologies. Your settings can be changed in the browser on your device.

For certain purposes, legitimate interests may be relied on, rather than consent. You can read more about this in our Privacy and Cookie Policy.